STARLINK-1400, 45700

Orbit data source: Space-Track

STARLINK-1400, 45700 is a payload satellite owned by SpaceX/Seattle (US) in LEO that was launched on Thu, 04 Jun 2020 UTC via an FALCON 9 launch vehicle from the Air Force Eastern Test Range (AFETR). Payload-class satellites include a variety of spacecraft equipped with specific instruments for various scientific and technological missions. These include communications satellites like Starlink; space stations such as the ISS; scientific satellites like the Hubble; Earth observation satellites from companies like Planet Labs, Umbra, and HawkEye 360; GPS; miniature CubeSats for education and research; and military/defense satellites.

Loading next visibility...
Identifier
45700, 2020-035AV
Orbit
LEO
Country
Flag of USUS
Related business
Manufacturer
SpaceX/Seattle
Mission
Operational Commercial Communications
Bus & Motor
STARLINK, Unknown motor
Mass
260 kg wet, ~248 kg dry
Launch date (UTC)
2020-06-04 (5 years ago)
Launch vehicle
FALCON 9
Launch site
Air Force Eastern Test Range (AFETR)
Object type
Payload
Rocket body
Debris
Shape & HBR
Box + 1 Pan, 10.1 m
Radar Cross Section
13.562 m², Large (>1 m²)

Expand to show TLE details & history
Last TLE update: 8 hours ago

TLE from 8 hours ago
0 STARLINK-1400
1 45700U 20035AV  25304.13589068  .00006999  00000-0  48814-3 0  9991
2 45700  53.0532 258.2108 0001369  82.7085 277.4060 15.06413557299622
Epoch: 2025-10-31T03:15Z
TLE epoch observation values (Epoch: 2025-10-31T03:15:40.954Z)
Latitude
Longitude
169.6055°
Altitude
547.927 km
Speed
7.589 km/s
True Right ascension
17h 12m 50s
True Declination
0° 00' 00"
Sunlit
Object was in daylight at epoch
Visualization orbit readout
Latitude
Unknown
Longitude
Unknown
Altitude
Unknown
Speed
Unknown
Apparent Right ascension
Unknown
Apparent Declination
Unknown
Sunlit
N/A
Visualization observer readout
Local Sidereal Time
07:20:02
Azimuth
Unknown
Elevation
Unknown
Doppler factor
Unknown
Orbital elements
Apogee altitude
548.389 km
Perigee altitude
546.493 km
Semi-major axis
6,925.578 km
Eccentricity
0.00014
Inclination
53.0532°
RAAN
258.2108°
Arg. of periapsis
82.7085°
True anomaly
277.39044°
Mean anomaly
277.406°
Eccentric anomaly
277.39822°
Mean motion
3.76582 °/min
Orbital period
95.6 mins
BSTAR
0.00048814
Loading maneuver chart data...
Computing Atmospheric mass density...

Documentation

Showing up to 5 results
|